Temp
17 15 15 15 16 16 16 15 15 16 15 15 16 16 15 15 15 15 13 12 12 11 11 11 11 11 11 11 11 11 11 11 11
15 15 15 15 15 16 16 16 15 15 15 15 16 16 15 15 15 15 12 12 12 12 11 11 11 11 11 11 11 11 11 12 11
15 15 15 15 15 16 16 16 15 15 15 15 15 15 15 15 15 15 13 12 11 11 11 12 11 11 12 12 11 11 11 12 11
16 15 15 15 15 16 16 16 16 15 15 15 15 15 15 15 15 14 14 13 13 13 14 13 12 13 13 12 12 11 12 11 12
16 15 15 15 15 16 16 16 16 15 15 15 15 15 15 15 15 15 14 14 14 14 14 13 13 13 13 13 13 12 12 12 12
15 16 15 15 16 15 16 16 16 15 15 15 15 15 14 14 14 14 14 14 14 14 14 13 13 13 13 13 13 12 12 12 11
15 15 15 15 16 15 15 16 15 15 15 15 15 15 14 14 14 14 14 14 14 14 14 13 13 13 13 13 12 12 12 12 12
15 15 15 15 15 15 15 15 15 15 15 15 14 14 14 14 14 14 14 14 14 13 13 13 13 13 13 13 12 12 12 12 11
15 15 16 15 15 15 15 15 15 15 14 14 14 14 14 14 14 14 14 14 13 13 13 13 13 13 13 13 12 12 12 12 12
14 15 15 16 15 15 15 15 15 15 14 14 14 14 14 14 14 14 14 14 13 13 13 13 13 13 13 12 12 12 12 12 12
14 15 14 15 15 15 15 15 15 15 14 14 14 13 13 13 14 13 13 13 13 13 13 13 12 12 12 12 12 12 12 11 11
15 15 14 15 15 15 15 14 14 14 14 14 14 13 13 13 13 13 13 13 13 13 12 12 12 12 12 12 12 11 11 11 11
14 15 15 14 15 15 15 14 14 14 14 14 14 13 13 13 13 13 13 13 12 12 12 12 12 12 12 12 11 11 11 11 11
14 14 14 14 14 15 14 14 14 14 14 13 13 13 13 13 13 13 13 12 12 12 12 12 12 12 12 12 12 11 11 12 11
14 14 14 14 14 14 14 14 14 13 13 13 13 13 13 13 13 13 12 12 12 12 12 12 12 11 11 12 11 11 11 12 12
14 14 14 13 14 15 14 14 13 13 12 13 12 12 12 12 12 12 13 12 12 12 12 12 12 12 12 11 11 11 11 12 11
14 14 13 13 13 14 14 14 13 13 13 13 12 12 12 12 12 12 12 13 12 12 12 12 12 11 11 11 11 11 11 11 11
13 13 13 14 13 13 14 13 13 13 13 12 13 12 12 12 12 12 12 12 12 12 12 12 12 12 11 11 11 11 10 11 11
14 14 13 13 12 13 14 13 13 13 13 12 12 13 14 13 12 12 12 12 12 12 12 12 12 11 12 11 11 11 11 11 11
14 14 14 13 13 12 13 13 13 13 13 13 13 13 13 13 14 13 13 12 12 12 12 12 12 11 12 11 11 11 11 11 11
Height
1548 1550 1552 1554 1554 1555 1557 1560 1561 1562 1563 1565 1565 1566 1567 1567 1568 1567 1567 1568 1569 1568 1569 1568 1569 1569 1568 1569 1568 1568 1567 1566 1565
1549 1551 1553 1555 1556 1556 1557 1560 1562 1563 1565 1566 1567 1568 1569 1569 1570 1569 1570 1571 1571 1571 1571 1571 1570 1571 1571 1571 1570 1570 1569 1568 1567
1550 1552 1554 1556 1557 1558 1559 1561 1563 1565 1566 1567 1568 1569 1570 1571 1572 1572 1572 1573 1573 1573 1572 1572 1573 1572 1572 1572 1572 1572 1571 1570 1569
1551 1553 1554 1556 1558 1559 1561 1562 1564 1566 1567 1568 1570 1571 1572 1573 1574 1574 1574 1574 1574 1574 1574 1574 1574 1574 1574 1573 1573 1574 1573 1572 1571
1551 1553 1555 1556 1559 1561 1562 1564 1565 1567 1569 1570 1571 1572 1573 1574 1575 1575 1576 1576 1576 1576 1577 1576 1576 1576 1576 1576 1575 1575 1575 1574 1573
1551 1553 1554 1556 1558 1561 1563 1565 1566 1568 1569 1570 1572 1573 1575 1576 1577 1577 1578 1578 1578 1578 1578 1578 1578 1578 1578 1578 1577 1577 1576 1575 1574
1549 1552 1555 1556 1558 1560 1563 1565 1567 1569 1570 1571 1572 1574 1575 1576 1578 1579 1579 1580 1580 1580 1580 1580 1580 1580 1579 1579 1579 1578 1578 1577 1576
1547 1550 1553 1556 1557 1559 1562 1564 1567 1569 1570 1572 1573 1574 1576 1577 1578 1579 1580 1581 1581 1581 1581 1581 1581 1581 1581 1580 1579 1579 1579 1578 1578
1545 1548 1551 1554 1556 1558 1561 1564 1566 1568 1570 1572 1573 1575 1576 1577 1578 1579 1580 1581 1581 1582 1581 1582 1582 1582 1582 1581 1580 1579 1579 1579 1578
1544 1546 1549 1552 1555 1557 1559 1562 1565 1567 1570 1571 1573 1574 1576 1577 1578 1579 1580 1581 1581 1582 1582 1582 1582 1582 1582 1582 1581 1580 1579 1579 1578
1542 1545 1548 1551 1553 1556 1558 1560 1563 1567 1569 1570 1572 1574 1575 1577 1578 1578 1579 1580 1581 1581 1581 1581 1582 1582 1582 1582 1581 1580 1579 1579 1578
1539 1542 1546 1549 1552 1555 1557 1560 1561 1564 1567 1570 1571 1573 1575 1576 1577 1578 1579 1579 1580 1580 1580 1580 1580 1581 1581 1580 1580 1580 1579 1578 1578
1535 1538 1542 1547 1551 1553 1555 1557 1560 1562 1565 1568 1570 1572 1573 1574 1575 1576 1577 1578 1579 1579 1579 1579 1579 1579 1578 1579 1579 1578 1578 1577 1577
1530 1535 1540 1544 1548 1551 1555 1555 1559 1561 1563 1565 1568 1570 1572 1573 1573 1574 1576 1576 1577 1578 1578 1578 1577 1577 1577 1577 1578 1577 1577 1576 1575
1524 1529 1535 1540 1543 1547 1550 1553 1556 1560 1564 1565 1566 1568 1569 1570 1571 1572 1573 1574 1574 1575 1575 1576 1576 1575 1576 1576 1576 1575 1574 1574 1573
1519 1523 1529 1534 1537 1541 1546 1550 1553 1557 1561 1563 1564 1566 1566 1567 1568 1569 1570 1571 1572 1572 1573 1574 1573 1573 1574 1573 1573 1573 1572 1572 1571
1514 1518 1522 1528 1533 1536 1541 1544 1548 1553 1556 1559 1561 1564 1565 1563 1565 1566 1567 1567 1569 1569 1569 1570 1570 1570 1570 1571 1570 1570 1569 1569 1569
1508 1512 1516 1521 1528 1531 1536 1541 1543 1547 1551 1555 1558 1558 1558 1559 1560 1562 1563 1564 1566 1566 1566 1567 1567 1567 1567 1567 1566 1567 1567 1566 1566
1499 1504 1510 1515 1519 1525 1531 1536 1540 1544 1547 1550 1552 1553 1553 1554 1556 1557 1559 1561 1563 1563 1563 1563 1563 1564 1564 1565 1565 1564 1564 1564 1563
1491 1496 1502 1507 1513 1519 1526 1530 1535 1539 1542 1544 1546 1548 1550 1551 1552 1552 1554 1556 1558 1558 1559 1560 1560 1560 1561 1562 1562 1562 1561 1561 1560
Wind_Speed
21 23 19 18 17 14 14 13 12 9 10 11 11 12 11 10 11 11 14 15 14 14 16 13 15 12 17 15 17 17 15 11 14
19 18 18 17 16 15 14 13 12 12 12 10 11 12 11 10 10 12 15 13 14 14 13 14 14 15 15 13 13 12 15 13 17
19 18 17 15 15 14 14 14 13 11 11 11 11 12 11 10 11 12 14 14 12 13 13 15 14 13 14 13 14 14 11 14 17
18 18 17 15 15 15 14 15 13 11 10 10 11 11 11 10 11 11 13 12 12 11 14 13 13 12 12 12 12 11 12 14 16
19 18 17 15 15 16 15 14 13 11 10 10 12 11 11 9 10 10 11 12 13 13 12 12 12 12 11 12 13 14 13 15 15
18 20 18 16 16 17 15 14 13 12 11 12 12 11 10 9 8 9 10 11 12 11 11 10 11 11 11 11 11 11 12 13 13
19 21 19 17 18 18 17 15 14 12 12 12 12 11 10 8 7 7 8 9 9 9 9 9 9 10 10 10 10 11 11 11 12
22 23 23 21 20 21 19 18 15 13 12 12 11 10 9 8 6 6 6 6 6 6 7 7 8 8 9 9 9 10 9 11 12
26 25 25 25 23 23 21 20 17 15 14 12 10 9 8 7 6 5 4 4 3 3 4 5 6 7 7 8 8 8 8 10 12
28 27 26 26 26 25 24 22 19 17 15 14 11 9 8 7 5 4 3 2 1 1 2 3 4 5 5 5 7 7 8 8 10
29 29 28 27 27 27 26 24 21 18 16 15 12 10 8 6 4 3 2 2 1 1 1 2 3 3 4 5 5 5 6 8 9
32 30 31 29 28 28 28 26 24 21 18 15 14 12 9 6 4 4 3 3 2 2 2 2 3 4 5 7 6 6 8 8 8
35 33 33 30 30 30 30 29 28 24 20 17 15 13 10 8 7 6 5 4 4 3 3 4 4 5 6 7 7 8 7 7 8
38 35 32 32 33 33 32 31 29 26 23 19 16 13 10 9 9 7 7 6 6 6 6 5 6 7 7 7 8 7 7 6 8
41 36 33 34 35 36 36 34 32 27 23 19 17 14 12 12 12 11 10 10 9 8 8 7 8 8 9 8 9 8 6 7 10
43 39 36 36 39 39 38 36 34 29 25 22 18 16 15 15 15 14 12 12 11 10 9 10 9 10 10 9 10 10 8 9 10
41 41 41 40 41 42 43 41 37 31 29 26 22 15 18 20 18 16 14 14 12 11 11 11 10 10 10 11 12 12 9 10 9
40 41 46 43 42 44 45 43 39 36 33 30 20 10 12 19 21 20 18 16 14 13 13 12 11 12 11 11 11 9 9 9 7
39 41 45 47 46 45 46 45 42 37 36 35 33 22 9 12 11 22 21 19 17 15 14 14 13 11 10 10 10 9 8 8 8
38 40 46 49 48 45 43 45 45 41 40 39 36 35 22 14 12 12 22 21 19 18 17 16 14 12 11 11 11 10 11 11 11
Wind_Direction
147 151 156 156 157 159 152 149 144 136 122 118 106 105 99 95 96 101 96 93 93 88 101 79 91 92 83 67 69 66 79 70 59
156 163 161 164 167 159 153 149 142 128 124 121 114 108 103 101 99 95 97 96 96 95 90 92 88 88 82 75 93 80 64 56 55
170 168 165 165 169 163 156 149 143 134 126 118 116 113 109 108 102 99 96 98 97 96 94 89 90 79 76 82 74 75 55 54 54
179 172 168 168 173 168 162 153 149 142 132 123 124 119 116 112 104 103 98 97 96 87 80 86 81 82 78 73 81 70 55 51 52
188 180 175 176 177 173 169 161 153 145 137 133 131 127 123 117 108 104 91 85 80 77 79 79 76 72 70 65 58 56 51 50 50
194 190 182 181 179 178 176 172 161 151 142 139 137 134 129 120 110 100 92 82 80 79 78 76 72 69 66 63 60 53 48 45 46
199 194 189 185 181 181 185 180 172 161 155 150 144 141 138 130 117 99 89 85 82 78 75 73 69 65 62 58 53 48 43 41 40
200 193 194 190 186 186 190 188 181 171 164 157 150 148 150 143 128 107 95 90 83 77 69 63 59 56 55 50 46 46 41 39 37
204 200 197 195 194 192 194 194 187 179 171 167 164 156 156 156 139 128 119 103 87 70 60 52 49 44 42 41 38 40 37 39 38
208 205 203 199 198 196 196 195 194 187 181 177 173 166 159 158 151 150 150 149 127 57 29 33 31 30 24 25 28 33 30 34 35
214 210 206 204 201 198 198 198 197 195 191 185 183 178 174 168 165 170 177 206 233 265 301 356 339 347 354 347 351 9 14 13 13
218 216 211 208 205 201 197 198 197 199 198 195 193 193 190 190 198 211 223 227 239 271 280 287 303 327 331 318 317 317 321 327 334
221 220 216 214 209 204 200 198 199 200 203 203 203 202 207 214 224 225 232 234 242 240 269 269 268 279 281 301 311 322 322 324 330
223 224 222 217 213 207 204 200 203 203 205 205 208 210 219 221 224 229 234 236 241 249 268 274 278 281 283 296 311 320 331 354 350
226 225 224 221 215 210 206 205 204 208 209 207 207 216 220 222 227 234 238 238 242 252 262 269 276 283 281 289 299 307 323 329 315
228 223 224 224 219 213 209 205 206 206 206 208 211 218 225 228 231 238 241 238 246 252 255 265 274 277 282 286 286 292 305 301 305
229 226 224 226 221 215 211 208 207 208 207 207 210 213 225 230 233 238 239 238 245 249 250 267 275 274 275 278 281 287 293 290 294
229 228 230 228 223 219 213 211 210 209 208 213 207 201 220 225 232 232 235 234 242 249 251 266 270 273 272 270 275 272 269 279 272
232 227 232 235 223 222 217 214 215 215 215 213 219 225 221 200 216 225 227 231 239 246 248 262 265 263 269 270 269 271 269 269 272
230 229 233 234 230 221 220 220 218 219 221 222 219 221 226 223 220 220 222 226 235 240 244 255 254 256 264 264 268 266 268 271 275